Regional Weather Roundup
Issued by NWS

Home | Current Version | Previous Version | Graphics & Text | Print | Product List | Glossary On
Versions: 1 2 3 4 5 6 7 8 9 10 11 12 13 14 15 16 17 18 19 20 21 22 23 24 25 26 27
000
ASUS45 KBOI 201910
RWRID

IDAHO REGIONAL WEATHER ROUNDUP
NATIONAL WEATHER SERVICE BOISE ID
100 PM MDT FRI OCT 20 2017

NOTE: "FAIR" INDICATES FEW OR NO CLOUDS BELOW 12000 FEET
WITH NO SIGNIFICANT WEATHER AND/OR OBSTRUCTIONS TO VISIBILITY

IDZ012-014-202000-
SOUTHWEST IDAHO


CITY           SKY/WX    TMP DP  RH WIND       PRES   REMARKS
BOISE          CLOUDY    48  35  60 W17G29    29.81S
CALDWELL       PTSUNNY   54  36  50 SW18G26   29.81R
MOUNTAIN HOME  PTSUNNY   50  34  54 W17G28    29.82R
$$

IDZ016-017-202000-
SOUTHCENTRAL IDAHO


CITY           SKY/WX    TMP DP  RH WIND       PRES   REMARKS
JEROME         CLOUDY    42  41  96 W18       29.81R
TWIN FALLS     LGT RAIN  38  37  97 W13       29.82R WCI  30
$$

IDZ019>023-202000-
SOUTHEAST IDAHO


CITY           SKY/WX    TMP DP  RH WIND       PRES   REMARKS
IDAHO FALLS    CLOUDY    42  34  73 SW31G47   29.68R
POCATELLO      CLOUDY    40  33  76 SW23G38   29.80R WCI  30
REXBURG        CLOUDY    44  33  65 S25G40    29.61S
$$

IDZ006-010-011-018-031-032-202000-
CENTRAL IDAHO MOUNTAINS


CITY           SKY/WX    TMP DP  RH WIND       PRES   REMARKS
MCCALL         FLURRIES  33  32  96 SE10      29.71R WCI  25
HAILEY         MOSUNNY   45  25  45 W10G20    29.67R
STANLEY          N/A     34  28  79 E5        29.70R WCI  30
SALMON         CLOUDY    42  34  73 NW5       29.62R
CHALLIS        CLOUDY    42  29  59 W15G23    29.59R
$$

IDZ002-004-006-007-026-202000-
NORTHERN IDAHO


CITY           SKY/WX    TMP DP  RH WIND       PRES   REMARKS
LEWISTON       CLOUDY    52  42  69 N5        29.69R
LOWELL           N/A     41  39  93 CALM      29.74R
COEUR D`ALENE  CLOUDY    45  39  79 SW13      29.64R
MULLAN PASS    SNOW      29  27  92 MISG      29.56R VSB<1/4
$$




USA.gov is the U.S. government's official web portal to all federal, state and local government web resources and services.